This is the latest recevied weather packets stored in our database for station/object K0WXC-1. If no packets are shown the sender has not sent any weather packets the latest 10 day(s).
| Time | Temp. | Humidity | Pressure | Rain* | Wind** | Luminosity | Snow |
|---|---|---|---|---|---|---|---|
| 1777580368 | 16.11° C | 60% | 1001.3 hPa | 0 mm | 1.79 m/s, 208° | - | - |
| 1777580308 | 16.11° C | 60% | 1001.3 hPa | 0 mm | 1.79 m/s, 208° | - | - |
| 1777580248 | 16.11° C | 60% | 1001.3 hPa | 0 mm | 1.79 m/s, 208° | - | - |
| 1777580188 | 15° C | 61% | 1001.3 hPa | 0 mm | 0.89 m/s, 223° | - | - |
| 1777580128 | 15° C | 61% | 1001.3 hPa | 0 mm | 0.89 m/s, 223° | - | - |
| 1777580068 | 15° C | 61% | 1001.3 hPa | 0 mm | 0.89 m/s, 223° | - | - |
| 1777580008 | 15° C | 61% | 1001.3 hPa | 0 mm | 0.89 m/s, 223° | - | - |
| 1777579948 | 15° C | 61% | 1001.3 hPa | 0 mm | 0.89 m/s, 223° | - | - |
| 1777579888 | 15° C | 61% | 1001.3 hPa | 0 mm | 0.89 m/s, 223° | - | - |
| 1777579828 | 13.89° C | 65% | 1001.5 hPa | 0 mm | 0.45 m/s, 167° | - | - |
| 1777579768 | 13.89° C | 65% | 1001.5 hPa | 0 mm | 0.45 m/s, 167° | - | - |
| 1777579708 | 13.89° C | 65% | 1001.5 hPa | 0 mm | 0.45 m/s, 167° | - | - |
| 1777579648 | 13.89° C | 65% | 1001.5 hPa | 0 mm | 0.45 m/s, 167° | - | - |
| 1777579588 | 13.89° C | 65% | 1001.5 hPa | 0 mm | 0.45 m/s, 167° | - | - |
| 1777579528 | 13.33° C | 65% | 1001.6 hPa | 0 mm | 1.34 m/s, 240° | - | - |
| 1777579468 | 13.33° C | 65% | 1001.6 hPa | 0 mm | 1.34 m/s, 240° | - | - |
| 1777579408 | 13.33° C | 65% | 1001.6 hPa | 0 mm | 1.34 m/s, 240° | - | - |
| 1777579348 | 13.33° C | 65% | 1001.6 hPa | 0 mm | 1.34 m/s, 240° | - | - |
| 1777579288 | 13.33° C | 65% | 1001.6 hPa | 0 mm | 1.34 m/s, 240° | - | - |
| 1777579228 | 13.33° C | 64% | 1001.6 hPa | 0 mm | 0.89 m/s, 212° | - | - |
| 1777579168 | 13.33° C | 64% | 1001.6 hPa | 0 mm | 0.89 m/s, 212° | - | - |
| 1777579108 | 13.33° C | 64% | 1001.6 hPa | 0 mm | 0.89 m/s, 212° | - | - |
| 1777579048 | 13.89° C | 66% | 1001.8 hPa | 0 mm | 1.34 m/s, 167° | - | - |
| 1777578988 | 13.89° C | 66% | 1001.8 hPa | 0 mm | 1.34 m/s, 167° | - | - |
| 1777578928 | 13.89° C | 66% | 1001.8 hPa | 0 mm | 1.34 m/s, 167° | - | - |
* Rain latest hour (hover to see other rain measurements)
** Current wind speed in m/s (hover to see current wind gust speed)